Weather History for KHWO - January, 2012

Change the Weather History Date:

Wednesday, January 11, 2012

  Actual Average (KFLL) Record (KFLL)
Temperature  
Mean Temperature 67 °F 69 °F  
Max Temperature 75 °F 76 °F 86 °F (1925)
Min Temperature 59 °F 61 °F 33 °F (1970)
Degree Days  
Heating Degree Days 0 2  
Month to date heating degree days 22  
Since 1 July heating degree days 54  
Cooling Degree Days 2 5  
Month to date cooling degree days 64  
Year to date cooling degree days 64  
Growing Degree Days 17 (Base 50)    
Moisture  
Dew Point 63 °F    
Average Humidity 84    
Maximum Humidity 93    
Minimum Humidity 69    
Precipitation  
Precipitation 0.00 in 0.08 in 0.84 in (1929)
Month to date precipitation 0.91  
Year to date precipitation 0.91  
Snow  
Snow 0.00 in - - ()
Month to date snowfall  
Since 1 July snowfall  
Snow Depth -    
Sea Level Pressure  
Sea Level Pressure 29.93 in    
Wind  
Wind Speed 4 mph (SSW)    
Max Wind Speed 17 mph    
Max Gust Speed 26 mph    
Visibility 9 miles    
Events      
T = Trace of Precipitation, MM = Missing Value Source: NWS Daily Summary

Daily Weather History Graph

Daily Weather History Graph

Search for Another Location

Airport or City:

Trip Planner

Search our weather history database for the weather conditions in past years. The results will help you decide how hot, cold, wet, or windy it might be!

Date:

Astronomy

Jan. 11, 2012 Rise Set
Actual Time 7:09 AM EST 5:47 PM EST
Civil Twilight 6:44 AM EST 6:12 PM EST
Nautical Twilight 6:16 AM EST 6:41 PM EST
Astronomical Twilight 5:48 AM EST 7:09 PM EST
Moon 8:24 PM EST (1/11) 8:37 AM EST (1/11)
Length of Visible Light 11h 28m
Length of Day
10h 38m
Waning Gibbous, 93% of the Moon is Illuminated
Jan 11
Waning Gibbous
Jan 16
Last Quarter
Jan 23
New
Jan 30
First Quarter
Feb 7
Full

Hourly Weather History & Observations

Time (EST) Temp. Dew Point Humidity Pressure Visibility Wind Dir Wind Speed Gust Speed Precip Events Conditions
12:53 AM 62.1 °F 57.9 °F 86% 30.01 in 10.0 mi Calm Calm - N/A   Clear
1:53 AM 61.0 °F 57.9 °F 90% 29.99 in 10.0 mi Calm Calm - N/A   Clear
2:53 AM 60.1 °F 57.0 °F 90% 29.97 in 9.0 mi Calm Calm - N/A   Clear
3:53 AM 59.0 °F 57.0 °F 93% 29.96 in 9.0 mi Calm Calm - N/A   Clear
4:53 AM 59.0 °F 57.0 °F 93% 29.97 in 9.0 mi Calm Calm - N/A   Clear
5:53 AM 60.1 °F 57.0 °F 90% 29.96 in 9.0 mi SSE 4.6 mph - N/A   Clear
6:53 AM 60.1 °F 57.0 °F 90% 29.98 in 8.0 mi Calm Calm - N/A   Clear
7:53 AM 64.9 °F 62.1 °F 90% 29.96 in 8.0 mi SSE 4.6 mph - N/A   Clear
8:53 AM 71.1 °F 64.0 °F 78% 29.96 in 10.0 mi SSE 6.9 mph - N/A   Clear
9:53 AM 73.9 °F 64.0 °F 71% 29.99 in 10.0 mi South 15.0 mph - N/A   Clear
10:53 AM 75.0 °F 64.0 °F 69% 29.95 in 10.0 mi South 12.7 mph 26.5 mph N/A   Clear
11:53 AM 73.9 °F 64.0 °F 71% 29.90 in 10.0 mi South 17.3 mph 26.5 mph N/A   Clear
12:53 PM 75.0 °F 64.9 °F 71% 29.87 in 10.0 mi South 16.1 mph 25.3 mph N/A   Clear
1:53 PM 73.9 °F 66.0 °F 76% 29.86 in 10.0 mi SSW 11.5 mph 18.4 mph 0.00 in   Clear
2:53 PM 75.0 °F 66.9 °F 76% 29.87 in 10.0 mi SW 3.5 mph - N/A   Scattered Clouds
4:53 PM 73.9 °F 66.0 °F 76% 29.86 in 10.0 mi SSW 5.8 mph - N/A   Clear
5:53 PM 72.0 °F 66.0 °F 81% 29.87 in 10.0 mi Calm Calm - N/A   Partly Cloudy
6:53 PM 71.1 °F 66.9 °F 87% 29.88 in 10.0 mi WSW 3.5 mph - N/A   Clear
7:53 PM 69.1 °F 66.0 °F 90% 29.89 in 10.0 mi Calm Calm - N/A   Clear
8:53 PM 69.1 °F 66.0 °F 90% 29.90 in 9.0 mi WNW 4.6 mph - N/A   Clear
9:53 PM 69.1 °F 66.0 °F 90% 29.90 in 8.0 mi West 5.8 mph - N/A   Clear
10:53 PM 69.1 °F 64.9 °F 87% 29.90 in 8.0 mi West 6.9 mph - N/A   Clear
11:53 PM 68.0 °F 64.0 °F 87% 29.90 in 8.0 mi West 9.2 mph - N/A   Clear